KB3PHD Weather Reports


Display with metric or nautical units.
time (UTC)temp
F
wind
direction
speed
MPH
gust
MPH
rain 1hr
in
rain 24hr
in
rain mn
in
humidity
%
barometer
mb
20260504110557 52 181 6.0 10.0 0.00 0.01 0.00 58 1015.2
20260504100538 53 175 6.0 10.0 0.00 0.01 0.00 57 1015.1
20260504081519 53 272 1.0 3.0 0.00 0.01 0.00 56 1015.5
20260504080539 52 326 0.0 1.0 0.00 0.01 0.00 59 1015.4
20260504050519 52 191 1.0 3.0 0.00 0.01 0.00 53 1015.7
20260504045540 52 193 2.0 3.0 0.00 0.01 0.00 53 1015.6
20260504044519 52 195 2.0 4.0 0.00 0.01 0.00 52 1015.7
20260504043540 52 188 2.0 3.0 0.00 0.01 0.00 52 1015.7
20260504042521 52 186 2.0 4.0 0.00 0.01 0.00 51 1015.7
20260504041517 52 187 2.0 3.0 0.00 0.01 0.00 51 1015.6
20260504040517 53 171 4.0 6.0 0.00 0.01 0.00 49 1015.6
20260504035540 53 176 4.0 5.0 0.00 0.01 0.01 50 1015.7
20260504034541 53 184 4.0 5.0 0.00 0.01 0.01 51 1015.6
20260504033517 53 172 5.0 8.0 0.00 0.01 0.01 48 1015.5
20260504032518 52 171 5.0 8.0 0.00 0.01 0.01 51 1015.4
20260504031518 53 184 3.0 6.0 0.00 0.01 0.01 51 1015.4
20260504030518 53 188 1.0 4.0 0.00 0.01 0.01 49 1015.3
20260504025521 54 158 1.0 5.0 0.00 0.01 0.01 47 1015.2
20260504024518 53 148 0.0 5.0 0.00 0.01 0.01 47 1015.1
20260504023518 54 335 0.0 3.0 0.00 0.01 0.01 48 1015.1
20260504022518 54 321 0.0 0.0 0.00 0.01 0.01 46 1015.0
20260504021519 53 152 3.0 5.0 0.00 0.01 0.01 49 1015.0
20260504020518 56 0.0 0.0 0.00 0.01 0.01 44 1015.0
20260504015519 56 265 0.0 2.0 0.00 0.01 0.01 43 1014.9
20260504014519 56 147 0.0 2.0 0.00 0.01 0.01 41 1014.9
20260504013519 56 166 2.0 3.0 0.00 0.01 0.01 43 1014.9
20260504012539 56 174 0.0 2.0 0.00 0.01 0.01 40 1014.7
20260504011520 57 335 0.0 0.0 0.00 0.01 0.01 39 1014.7
20260504010519 58 0.0 0.0 0.00 0.01 0.01 36 1014.6
20260504005521 59 263 0.0 1.0 0.00 0.01 0.01 34 1014.6
20260504004516 59 249 1.0 2.0 0.00 0.01 0.01 33 1014.5
20260504003520 60 249 1.0 3.0 0.00 0.01 0.01 32 1014.4
20260504002521 60 235 2.0 4.0 0.00 0.01 0.01 31 1014.3
20260504001520 60 233 1.0 3.0 0.00 0.01 0.01 30 1014.2
20260504000520 61 234 1.0 4.0 0.00 0.01 0.01 30 1014.1
20260503235518 61 241 3.0 5.0 0.00 0.01 0.01 29 1014.1
20260503234517 61 250 2.0 6.0 0.00 0.01 0.01 28 1014.0
20260503233517 62 276 2.0 4.0 0.00 0.01 0.01 28 1014.0
20260503232601 62 259 5.0 8.0 0.00 0.01 0.01 28 1013.8
20260503231538 62 265 2.0 7.0 0.00 0.01 0.01 27 1013.8
20260503230518 62 277 5.0 11.0 0.00 0.01 0.01 28 1013.7
20260503225518 62 260 6.0 10.0 0.00 0.01 0.01 28 1013.8
20260503224518 62 262 5.0 10.0 0.00 0.01 0.01 27 1013.8
20260503223519 62 260 6.0 11.0 0.00 0.01 0.01 28 1013.8
20260503222520 62 257 7.0 13.0 0.00 0.01 0.01 27 1013.9
20260503220520 61 269 9.0 17.0 0.00 0.01 0.01 28 1013.9
20260503215519 61 276 7.0 13.0 0.00 0.01 0.01 28 1014.0
20260503214519 61 286 8.0 14.0 0.00 0.01 0.01 28 1014.0
20260503213521 61 263 9.0 17.0 0.00 0.01 0.01 29 1013.9
20260503212519 61 253 6.0 13.0 0.00 0.01 0.01 29 1013.9
20260503211517 60 260 5.0 12.0 0.00 0.01 0.01 29 1013.9
20260503210520 60 273 10.0 14.0 0.00 0.01 0.01 29 1014.0
20260503205520 60 270 6.0 13.0 0.00 0.01 0.01 30 1014.0
20260503204520 59 274 8.0 20.0 0.00 0.01 0.01 31 1013.9
20260503203520 59 282 8.0 13.0 0.00 0.01 0.01 30 1014.1
20260503202537 59 278 8.0 17.0 0.00 0.01 0.01 30 1014.3
20260503201517 59 266 12.0 24.0 0.00 0.01 0.01 31 1014.3
20260503200518 59 288 8.0 12.0 0.00 0.01 0.01 32 1014.6
20260503195521 59 259 11.0 23.0 0.00 0.01 0.01 31 1014.5
20260503194521 58 272 11.0 23.0 0.00 0.01 0.01 32 1014.7
20260503193538 58 272 10.0 23.0 0.00 0.01 0.01 33 1014.9
20260503192518 59 279 10.0 17.0 0.00 0.01 0.01 33 1015.0
20260503191519 59 280 7.0 14.0 0.00 0.01 0.01 33 1015.1
20260503190519 58 285 4.0 11.0 0.00 0.01 0.01 34 1015.4
20260503185539 57 272 8.0 17.0 0.00 0.01 0.01 34 1015.4
20260503184519 57 271 8.0 15.0 0.00 0.01 0.01 33 1015.5
20260503183539 57 276 10.0 19.0 0.00 0.01 0.01 34 1015.6
20260503182519 56 257 8.0 15.0 0.00 0.01 0.01 34 1015.6
20260503181519 56 293 7.0 16.0 0.00 0.01 0.01 35 1015.8
20260503180520 56 306 6.0 11.0 0.00 0.01 0.01 36 1015.9
20260503175559 55 268 8.0 17.0 0.00 0.01 0.01 36 1015.9
20260503174520 54 291 10.0 25.0 0.00 0.01 0.01 36 1015.9
20260503173520 54 287 10.0 16.0 0.00 0.01 0.01 36 1016.1
20260503172540 54 318 10.0 17.0 0.00 0.01 0.01 37 1016.0
20260503171520 54 288 11.0 18.0 0.00 0.01 0.01 36 1016.1
20260503170517 54 310 12.0 20.0 0.00 0.01 0.01 36 1016.1
20260503150519 50 317 7.0 15.0 0.00 0.00 0.00 41 1016.8
20260503130518 46 310 13.0 24.0 0.00 0.00 0.00 47 1017.1